| time (UTC) | temp F | wind direction | speed MPH | gust MPH | rain 1hr in | rain 24hr in | rain mn in | humidity % | barometer mb |
| 20260505080506 | 68 | 145 | 6.0 | 20.0 | 0.00 | 0.00 | 0.00 | 50 | 1018.1 |
| 20260505080004 | 68 | 143 | 14.0 | 20.0 | 0.00 | 0.00 | 0.00 | 50 | 1017.1 |
| 20260505075004 | 68 | 155 | 8.0 | 15.0 | 0.00 | 0.00 | 0.00 | 50 | 1017.1 |
| 20260505074003 | 68 | 145 | 11.0 | 16.0 | 0.00 | 0.00 | 0.00 | 50 | 1018.1 |
| 20260505073003 | 68 | 140 | 12.0 | 16.0 | 0.00 | 0.00 | 0.00 | 50 | 1017.1 |
| 20260505072504 | 69 | 132 | 9.0 | 16.0 | 0.00 | 0.00 | 0.00 | 50 | 1017.1 |
| 20260505072004 | 69 | 147 | 9.0 | 17.0 | 0.00 | 0.00 | 0.00 | 50 | 1017.1 |
| 20260505071504 | 68 | 155 | 11.0 | 19.0 | 0.00 | 0.00 | 0.00 | 50 | 1018.1 |
| 20260505071004 | 69 | 150 | 15.0 | 23.0 | 0.00 | 0.00 | 0.00 | 50 | 1018.1 |
| 20260505070503 | 69 | 157 | 11.0 | 23.0 | 0.00 | 0.00 | 0.00 | 50 | 1018.1 |
| 20260505070004 | 69 | 161 | 12.0 | 18.0 | 0.00 | 0.00 | 0.00 | 50 | 1018.1 |
| 20260505065504 | 69 | 152 | 13.0 | 18.0 | 0.00 | 0.00 | 0.00 | 50 | 1018.1 |
| 20260505065005 | 69 | 140 | 11.0 | 15.0 | 0.00 | 0.00 | 0.00 | 50 | 1018.1 |
| 20260505064504 | 69 | 137 | 10.0 | 16.0 | 0.00 | 0.00 | 0.00 | 50 | 1018.1 |
| 20260505064003 | 69 | 141 | 10.0 | 17.0 | 0.00 | 0.00 | 0.00 | 50 | 1018.1 |
| 20260505063504 | 69 | 144 | 9.0 | 17.0 | 0.00 | 0.00 | 0.00 | 50 | 1018.1 |
| 20260505063004 | 69 | 142 | 10.0 | 17.0 | 0.00 | 0.00 | 0.00 | 50 | 1018.1 |
| 20260505062504 | 69 | 147 | 13.0 | 18.0 | 0.00 | 0.00 | 0.00 | 50 | 1018.1 |
| 20260505062004 | 69 | 153 | 8.0 | 18.0 | 0.00 | 0.00 | 0.00 | 50 | 1018.1 |
| 20260505061004 | 69 | 144 | 11.0 | 19.0 | 0.00 | 0.00 | 0.00 | 50 | 1018.1 |
| 20260505060503 | 70 | 161 | 14.0 | 19.0 | 0.00 | 0.00 | 0.00 | 50 | 1018.1 |
| 20260505060004 | 70 | 159 | 11.0 | 19.0 | 0.00 | 0.00 | 0.00 | 50 | 1018.1 |
| 20260505054504 | 70 | 148 | 7.0 | 19.0 | 0.00 | 0.00 | 0.00 | 50 | 1018.1 |
| 20260505054006 | 70 | 143 | 14.0 | 19.0 | 0.00 | 0.00 | 0.00 | 50 | 1018.1 |
| 20260505053504 | 70 | 153 | 13.0 | 19.0 | 0.00 | 0.00 | 0.00 | 50 | 1018.1 |
| 20260505053004 | 70 | 161 | 6.0 | 17.0 | 0.00 | 0.00 | 0.00 | 50 | 1018.1 |
| 20260505052004 | 70 | 154 | 16.0 | 21.0 | 0.00 | 0.00 | 0.00 | 50 | 1018.1 |
| 20260505051504 | 70 | 154 | 11.0 | 17.0 | 0.00 | 0.00 | 0.00 | 50 | 1018.1 |
| 20260505051003 | 70 | 157 | 13.0 | 17.0 | 0.00 | 0.00 | 0.00 | 50 | 1018.1 |
| 20260505050504 | 70 | 151 | 15.0 | 17.0 | 0.00 | 0.00 | 0.00 | 50 | 1018.1 |
| 20260505041504 | 71 | 158 | 10.0 | 19.0 | 0.00 | 0.00 | 0.00 | 50 | 1017.1 |
| 20260505041004 | 70 | 150 | 9.0 | 19.0 | 0.00 | 0.00 | 0.00 | 50 | 1017.1 |
| 20260505040504 | 71 | 154 | 10.0 | 13.0 | 0.00 | 0.00 | 0.00 | 50 | 1017.1 |
| 20260505035504 | 71 | 158 | 13.0 | 13.0 | 0.00 | 0.00 | 0.00 | 50 | 1018.1 |
| 20260505035004 | 71 | 152 | 8.0 | 13.0 | 0.00 | 0.00 | 0.00 | 50 | 1018.1 |
| 20260505034505 | 70 | 167 | 8.0 | 11.0 | 0.00 | 0.00 | 0.00 | 50 | 1018.1 |
| 20260505034005 | 70 | 188 | 4.0 | 13.0 | 0.00 | 0.00 | 0.00 | 50 | 1018.1 |
| 20260505033505 | 70 | 192 | 10.0 | 13.0 | 0.00 | 0.00 | 0.00 | 50 | 1018.1 |
| 20260505033004 | 71 | 191 | 4.0 | 11.0 | 0.00 | 0.00 | 0.00 | 50 | 1018.1 |
| 20260505032504 | 71 | 187 | 6.0 | 11.0 | 0.00 | 0.00 | 0.00 | 50 | 1018.1 |
| 20260505032003 | 71 | 188 | 4.0 | 9.0 | 0.00 | 0.00 | 0.00 | 50 | 1018.1 |
| 20260505031504 | 71 | 190 | 5.0 | 13.0 | 0.00 | 0.00 | 0.00 | 50 | 1018.1 |
| 20260505031005 | 71 | 191 | 5.0 | 13.0 | 0.00 | 0.00 | 0.00 | 50 | 1018.1 |
| 20260505030503 | 71 | 183 | 4.0 | 9.0 | 0.00 | 0.00 | 0.00 | 50 | 1018.1 |
| 20260505030004 | 70 | 166 | 9.0 | 8.0 | 0.00 | 0.00 | 0.00 | 50 | 1018.1 |
| 20260505025504 | 70 | 175 | 6.0 | 8.0 | 0.00 | 0.00 | 0.00 | 50 | 1018.1 |
| 20260505025004 | 70 | 194 | 6.0 | 10.0 | 0.00 | 0.00 | 0.00 | 50 | 1018.1 |
| 20260505023504 | 69 | 197 | 5.0 | 8.0 | 0.00 | 0.00 | 0.00 | 50 | 1018.1 |
| 20260505023003 | 69 | 184 | 7.0 | 10.0 | 0.00 | 0.00 | 0.00 | 50 | 1019.1 |
| 20260505022504 | 68 | 188 | 6.0 | 10.0 | 0.00 | 0.00 | 0.00 | 50 | 1019.1 |
| 20260505022003 | 68 | 190 | 6.0 | 13.0 | 0.00 | 0.00 | 0.00 | 50 | 1019.1 |
| 20260505021504 | 67 | 198 | 10.0 | 13.0 | 0.00 | 0.00 | 0.00 | 50 | 1019.1 |
| 20260505021004 | 68 | 198 | 10.0 | 15.0 | 0.00 | 0.00 | 0.00 | 50 | 1019.1 |
| 20260505015504 | 69 | 201 | 10.0 | 12.0 | 0.00 | 0.00 | 0.00 | 50 | 1019.1 |
| 20260505015004 | 69 | 197 | 10.0 | 13.0 | 0.00 | 0.00 | 0.00 | 50 | 1019.1 |
| 20260505014503 | 69 | 194 | 6.0 | 13.0 | 0.00 | 0.00 | 0.00 | 50 | 1019.1 |
| 20260505014004 | 69 | 191 | 9.0 | 11.0 | 0.00 | 0.00 | 0.00 | 50 | 1019.1 |
| 20260505013504 | 69 | 189 | 8.0 | 13.0 | 0.00 | 0.00 | 0.00 | 50 | 1019.1 |
| 20260505013004 | 71 | 191 | 10.0 | 13.0 | 0.00 | 0.00 | 0.00 | 50 | 1019.1 |
| 20260505012503 | 71 | 202 | 9.0 | 11.0 | 0.00 | 0.00 | 0.00 | 50 | 1019.1 |
| 20260505012004 | 72 | 195 | 3.0 | 9.0 | 0.00 | 0.00 | 0.00 | 50 | 1019.1 |
| 20260505011504 | 71 | 185 | 7.0 | 9.0 | 0.00 | 0.00 | 0.00 | 50 | 1019.1 |
| 20260505011003 | 72 | 185 | 3.0 | 6.0 | 0.00 | 0.00 | 0.00 | 50 | 1019.1 |
| 20260505010504 | 72 | 174 | 3.0 | 6.0 | 0.00 | 0.00 | 0.00 | 50 | 1019.1 |
| 20260505010004 | 73 | 150 | 6.0 | 6.0 | 0.00 | 0.00 | 0.00 | 50 | 1019.1 |
| 20260505005503 | 74 | 128 | 3.0 | 7.0 | 0.00 | 0.00 | 0.00 | 50 | 1019.1 |
| 20260505005005 | 75 | 91 | 5.0 | 7.0 | 0.00 | 0.00 | 0.00 | 50 | 1019.1 |
| 20260505004003 | 78 | 14 | 4.0 | 5.0 | 0.00 | 0.00 | 0.00 | 50 | 1018.1 |
| 20260505003504 | 77 | 341 | 0.0 | 4.0 | 0.00 | 0.00 | 0.00 | 50 | 1018.1 |
| 20260505003004 | 77 | 342 | 2.0 | 4.0 | 0.00 | 0.00 | 0.00 | 50 | 1018.1 |
| 20260505002505 | 76 | 349 | 1.0 | 4.0 | 0.00 | 0.00 | 0.00 | 50 | 1018.1 |
| 20260505002004 | 76 | 348 | 3.0 | 4.0 | 0.00 | 0.00 | 0.00 | 50 | 1018.1 |
| 20260505001504 | 76 | 310 | 3.0 | 5.0 | 0.00 | 0.00 | 0.00 | 50 | 1019.1 |
| 20260505001004 | 75 | 329 | 3.0 | 5.0 | 0.00 | 0.00 | 0.00 | 50 | 1019.1 |
| 20260505000504 | 75 | 337 | 6.0 | 6.0 | 0.00 | 0.00 | 0.00 | 50 | 1019.1 |
| 20260505000003 | 75 | 326 | 6.0 | 6.0 | 0.00 | 0.00 | 0.00 | 50 | 1019.1 |
| 20260504235504 | 75 | 312 | 4.0 | 6.0 | 0.00 | 0.00 | 0.00 | 50 | 1019.1 |
| 20260504235004 | 74 | 307 | 3.0 | 6.0 | 0.00 | 0.00 | 0.00 | 50 | 1019.1 |
| 20260504234003 | 74 | 340 | 6.0 | 4.0 | 0.00 | 0.00 | 0.00 | 50 | 1019.1 |
| 20260504233504 | 73 | 348 | 4.0 | 8.0 | 0.00 | 0.00 | 0.00 | 50 | 1019.1 |
| 20260504232504 | 72 | 345 | 3.0 | 8.0 | 0.00 | 0.00 | 0.00 | 50 | 1019.1 |
| 20260504232004 | 71 | 323 | 2.0 | 8.0 | 0.00 | 0.00 | 0.00 | 50 | 1019.1 |
| 20260504231504 | 71 | 334 | 4.0 | 8.0 | 0.00 | 0.00 | 0.00 | 50 | 1019.1 |
| 20260504231003 | 70 | 353 | 5.0 | 8.0 | 0.00 | 0.00 | 0.00 | 50 | 1019.1 |
| 20260504230504 | 69 | 0 | 0.0 | 0.0 | 0.00 | 0.00 | 0.00 | 50 | 1019.1 |
| 20260504225504 | 68 | 292 | 0.0 | 6.0 | 0.00 | 0.00 | 0.00 | 50 | 1018.1 |
| 20260504225003 | 67 | 292 | 5.0 | 10.0 | 0.00 | 0.00 | 0.00 | 50 | 1018.1 |
| 20260504224505 | 67 | 298 | 5.0 | 10.0 | 0.00 | 0.00 | 0.00 | 50 | 1018.1 |
| 20260504224004 | 66 | 302 | 9.0 | 10.0 | 0.00 | 0.00 | 0.00 | 50 | 1018.1 |
| 20260504223504 | 65 | 135 | 1.0 | 1.0 | 0.00 | 0.00 | 0.00 | 50 | 1018.1 |
| 20260504223005 | 64 | 173 | 1.0 | 4.0 | 0.00 | 0.00 | 0.00 | 50 | 1018.1 |
| 20260504222504 | 63 | 286 | 1.0 | 10.0 | 0.00 | 0.00 | 0.00 | 50 | 1018.1 |
| 20260504222003 | 63 | 318 | 5.0 | 13.0 | 0.00 | 0.00 | 0.00 | 50 | 1018.1 |
| 20260504221504 | 62 | 328 | 5.0 | 13.0 | 0.00 | 0.00 | 0.00 | 50 | 1018.1 |
| 20260504221003 | 62 | 337 | 0.0 | 13.0 | 0.00 | 0.00 | 0.00 | 50 | 1018.1 |
| 20260504220504 | 61 | 338 | 9.0 | 13.0 | 0.00 | 0.00 | 0.00 | 50 | 1018.1 |
| 20260504220004 | 60 | 352 | 9.0 | 18.0 | 0.00 | 0.00 | 0.00 | 50 | 1018.1 |
| 20260504215503 | 60 | 359 | 13.0 | 20.0 | 0.00 | 0.00 | 0.00 | 50 | 1018.1 |
| 20260504215004 | 60 | 358 | 10.0 | 20.0 | 0.00 | 0.00 | 0.00 | 50 | 1018.1 |
| 20260504214505 | 60 | 357 | 10.0 | 21.0 | 0.00 | 0.00 | 0.00 | 50 | 1018.1 |
| 20260504214004 | 59 | 359 | 12.0 | 21.0 | 0.00 | 0.00 | 0.00 | 50 | 1018.1 |
| 20260504213004 | 58 | 11 | 8.0 | 14.0 | 0.00 | 0.00 | 0.00 | 50 | 1017.1 |
| 20260504212004 | 57 | 347 | 9.0 | 22.0 | 0.00 | 0.04 | 0.00 | 50 | 1017.1 |
| 20260504211504 | 56 | 333 | 9.0 | 22.0 | 0.00 | 0.04 | 0.00 | 50 | 1018.1 |
| 20260504211004 | 56 | 329 | 15.0 | 21.0 | 0.00 | 0.04 | 0.00 | 50 | 1018.1 |
| 20260504210504 | 56 | 325 | 13.0 | 22.0 | 0.00 | 0.04 | 0.00 | 50 | 1018.1 |
| 20260504210004 | 55 | 325 | 16.0 | 22.0 | 0.00 | 0.04 | 0.00 | 50 | 1018.1 |
| 20260504205503 | 55 | 329 | 14.0 | 22.0 | 0.00 | 0.04 | 0.00 | 50 | 1018.1 |
| 20260504205003 | 55 | 328 | 10.0 | 22.0 | 0.00 | 0.04 | 0.00 | 50 | 1018.1 |
| 20260504204503 | 54 | 327 | 13.0 | 18.0 | 0.00 | 0.08 | 0.00 | 50 | 1018.1 |
| 20260504204004 | 54 | 332 | 10.0 | 19.0 | 0.00 | 0.08 | 0.00 | 50 | 1018.1 |
| 20260504203003 | 54 | 332 | 13.0 | 23.0 | 0.00 | 0.08 | 0.00 | 50 | 1018.1 |
| 20260504202004 | 53 | 327 | 15.0 | 23.0 | 0.00 | 0.08 | 0.00 | 50 | 1018.1 |
| 20260504201504 | 52 | 322 | 15.0 | 25.0 | 0.00 | 0.08 | 0.00 | 50 | 1018.1 |
| 20260504200503 | 52 | 313 | 12.0 | 25.0 | 0.00 | 0.08 | 0.00 | 50 | 1018.1 |
| 20260504200004 | 52 | 313 | 9.0 | 13.0 | 0.00 | 0.08 | 0.00 | 50 | 1017.1 |
| 20260504195504 | 52 | 314 | 10.0 | 13.0 | 0.00 | 0.08 | 0.00 | 50 | 1017.1 |
| 20260504195004 | 53 | 329 | 4.0 | 6.0 | 0.00 | 0.08 | 0.00 | 50 | 1017.1 |
| 20260504194003 | 53 | 329 | 5.0 | 6.0 | 0.00 | 0.08 | 0.00 | 50 | 1018.1 |
| 20260504193504 | 53 | 330 | 2.0 | 4.0 | 0.00 | 0.08 | 0.00 | 50 | 1018.1 |
| 20260504193004 | 53 | 337 | 3.0 | 7.0 | 0.00 | 0.08 | 0.00 | 50 | 1018.1 |
| 20260504192504 | 53 | 331 | 3.0 | 8.0 | 0.00 | 0.08 | 0.00 | 50 | 1018.1 |
| 20260504192005 | 53 | 327 | 5.0 | 10.0 | 0.00 | 0.08 | 0.00 | 50 | 1018.1 |
| 20260504191503 | 53 | 326 | 5.0 | 10.0 | 0.00 | 0.08 | 0.00 | 50 | 1018.1 |
| 20260504191003 | 53 | 323 | 6.0 | 11.0 | 0.00 | 0.08 | 0.00 | 50 | 1018.1 |
| 20260504185504 | 54 | 329 | 13.0 | 16.0 | 0.00 | 0.08 | 0.00 | 50 | 1017.1 |
| 20260504185004 | 54 | 340 | 9.0 | 15.0 | 0.00 | 0.08 | 0.00 | 50 | 1017.1 |
| 20260504184504 | 54 | 336 | 11.0 | 15.0 | 0.00 | 0.08 | 0.00 | 50 | 1016.1 |
| 20260504184004 | 54 | 332 | 6.0 | 11.0 | 0.00 | 0.08 | 0.00 | 50 | 1016.1 |
| 20260504183504 | 54 | 324 | 9.0 | 15.0 | 0.00 | 0.08 | 0.00 | 50 | 1016.1 |
| 20260504182504 | 54 | 337 | 9.0 | 13.0 | 0.00 | 0.08 | 0.00 | 50 | 1016.1 |
| 20260504182003 | 54 | 337 | 9.0 | 13.0 | 0.00 | 0.08 | 0.00 | 50 | 1016.1 |
| 20260504181004 | 55 | 319 | 7.0 | 13.0 | 0.00 | 0.08 | 0.00 | 50 | 1016.1 |
| 20260504180505 | 55 | 321 | 7.0 | 15.0 | 0.00 | 0.08 | 0.00 | 50 | 1016.1 |
| 20260504180003 | 55 | 322 | 9.0 | 15.0 | 0.00 | 0.08 | 0.00 | 50 | 1015.1 |
| 20260504175503 | 55 | 319 | 6.0 | 15.0 | 0.00 | 0.08 | 0.00 | 50 | 1015.1 |
| 20260504175004 | 55 | 321 | 9.0 | 15.0 | 0.00 | 0.08 | 0.00 | 50 | 1015.1 |
| 20260504174504 | 55 | 319 | 6.0 | 18.0 | 0.00 | 0.08 | 0.00 | 50 | 1015.1 |
| 20260504174004 | 55 | 310 | 9.0 | 27.0 | 0.00 | 0.08 | 0.00 | 50 | 1015.1 |
| 20260504173504 | 55 | 319 | 9.0 | 27.0 | 0.00 | 0.08 | 0.00 | 50 | 1015.1 |
| 20260504173004 | 56 | 320 | 9.0 | 21.0 | 0.00 | 0.08 | 0.00 | 50 | 1015.1 |
| 20260504172505 | 56 | 313 | 9.0 | 21.0 | 0.00 | 0.08 | 0.00 | 50 | 1015.1 |
| 20260504172004 | 56 | 306 | 11.0 | 17.0 | 0.00 | 0.08 | 0.00 | 50 | 1015.1 |
| 20260504171504 | 56 | 304 | 10.0 | 17.0 | 0.00 | 0.08 | 0.00 | 50 | 1014.1 |
| 20260504171004 | 56 | 305 | 6.0 | 18.0 | 0.00 | 0.08 | 0.00 | 50 | 1014.1 |
| 20260504170504 | 56 | 308 | 11.0 | 23.0 | 0.00 | 0.12 | 0.00 | 50 | 1014.1 |
| 20260504151004 | 57 | 303 | 13.0 | 28.0 | 0.00 | 0.25 | 0.00 | 50 | 1013.1 |
| 20260504150504 | 57 | 304 | 10.0 | 13.0 | 0.00 | 0.28 | 0.00 | 50 | 1013.1 |
| 20260504141004 | 58 | 309 | 5.0 | 13.0 | 0.00 | 0.37 | 0.28 | 50 | 1012.1 |
| 20260504130504 | 59 | 311 | 10.0 | 16.0 | 0.00 | 0.74 | 0.28 | 50 | 1012.1 |
| 20260504110503 | 60 | 311 | 9.0 | 18.0 | 0.00 | 1.03 | 0.28 | 50 | 1010.1 |
| 20260504100504 | 61 | 312 | 9.0 | 21.0 | 0.00 | 1.03 | 0.28 | 50 | 1008.1 |
| 20260504082004 | 65 | 324 | 20.0 | 31.0 | 0.00 | 1.12 | 0.28 | 50 | 1005.1 |
| 20260504081504 | 65 | 320 | 19.0 | 29.0 | 0.00 | 1.12 | 0.28 | 50 | 1004.1 |
| 20260504081005 | 66 | 323 | 18.0 | 33.0 | 0.00 | 1.12 | 0.28 | 50 | 1004.1 |